Tracking 19245 objects as of 18-Aug-2018
HD Live streaming from Space Station
objects crossing your sky now

NOAA 16 DEB

Track NOAA 16 DEB now!
10-day predictions


NORAD ID: 41215
Int'l Code: 2000-055DU
Perigee: 808.8 km
Apogee: 856.8 km
Inclination: 98.8 °
Period: 101.4 minutes
Semi major axis: 7203 km
RCS: Unknown
Launch date: September 21, 2000
Source: United States (US)
Launch site: AIR FORCE WESTERN TEST RANGE (AFWTR)

Note: This is SATELLITE DEBRIS
aabbcc
Your satellite tracking list
Your tracking list is empty




NASA's NSSDC Master Catalog

Two Line Element Set (TLE):
1 41215U 00055DU  18230.08331599  .00000482  00000-0  24648-3 0  9996
2 41215  98.8256 310.4644 0033317 125.1110 235.3197 14.19900683139355
Source of the keplerian elements: AFSPC